Change the Weather History Date:

Saturday, November 17, 2012

  Actual Average (KSAV) Record (KSAV)
Temperature  
Mean Temperature 50 °F 59 °F  
Max Temperature 62 °F 70 °F 85 °F (1964)
Min Temperature 37 °F 47 °F 28 °F (1970)
Degree Days  
Heating Degree Days 16 7  
Month to date heating degree days 94  
Since 1 July heating degree days 151  
Cooling Degree Days 0 1  
Month to date cooling degree days 27  
Year to date cooling degree days 2439  
Moisture  
Dew Point 41 °F    
Average Humidity 71    
Maximum Humidity 100    
Minimum Humidity 39    
Precipitation  
Precipitation 0.00 in 0.08 in 1.28 in (1986)
Month to date precipitation 1.33  
Year to date precipitation 43.97  
Sea Level Pressure  
Sea Level Pressure 30.31 in    
Wind  
Wind Speed 5 mph (NE)    
Max Wind Speed 14 mph    
Max Gust Speed 18 mph    
Visibility 10 miles    
Events      
T = Trace of Precipitation, MM = Missing Value Source: NWS Daily Summary

Daily Weather History Graph

Daily Weather History Graph

Search for Another Location

Airport or City:

Trip Planner

Search our weather history database for the weather conditions in past years. The results will help you decide how hot, cold, wet, or windy it might be!

Date:

Astronomy

Nov. 17, 2012 Rise Set
Actual Time 6:58 AM EST 5:26 PM EST
Civil Twilight 6:32 AM EST 5:52 PM EST
Nautical Twilight 6:02 AM EST 6:21 PM EST
Astronomical Twilight 5:33 AM EST 6:51 PM EST
Moon 10:42 AM EST (11/17) 9:33 PM EST (11/17)
Length of Visible Light 11h 19m
Length of Day
10h 27m
Waxing Crescent, 20% of the Moon is Illuminated
Nov 17
Waxing Crescent
Nov 20
First Quarter
Nov 28
Full
Dec 6
Last Quarter
Dec 13
New

Hourly Weather History & Observations

Time (EST) Temp. Windchill Dew Point Humidity Pressure Visibility Wind Dir Wind Speed Gust Speed Precip Events Conditions
12:15 AM 37.4 °F - 37.4 °F 100% 30.30 in 5.0 mi Calm Calm - N/A   Clear
12:35 AM 37.4 °F - 37.4 °F 100% 30.29 in 7.0 mi Calm Calm - N/A   Clear
12:55 AM 37.4 °F 34.9 °F 37.4 °F 100% 30.28 in 7.0 mi NNE 3.5 mph - N/A   Clear
1:15 AM 37.4 °F 33.8 °F 37.4 °F 100% 30.28 in 7.0 mi NNE 4.6 mph - N/A   Clear
1:35 AM 44.6 °F 43.1 °F 44.6 °F 100% 30.28 in 10.0 mi NE 3.5 mph - N/A   Clear
1:55 AM 41.0 °F 39.0 °F 41.0 °F 100% 30.28 in 10.0 mi NE 3.5 mph - N/A   Clear
2:15 AM 41.0 °F - 41.0 °F 100% 30.29 in 10.0 mi Calm Calm - N/A   Clear
2:35 AM 41.0 °F - 41.0 °F 100% 30.29 in 7.0 mi Calm Calm - N/A   Clear
2:55 AM 39.2 °F - 39.2 °F 100% 30.29 in 5.0 mi Calm Calm - N/A   Clear
3:15 AM 39.2 °F - 39.2 °F 100% 30.29 in 5.0 mi Calm Calm - N/A   Clear
3:35 AM 41.0 °F 39.0 °F 41.0 °F 100% 30.29 in 10.0 mi NNE 3.5 mph - N/A   Clear
3:55 AM 44.6 °F 42.2 °F 44.6 °F 100% 30.28 in 10.0 mi North 4.6 mph - N/A   Clear
4:15 AM 44.6 °F 43.1 °F 44.6 °F 100% 30.28 in 10.0 mi NNE 3.5 mph - N/A   Clear
4:35 AM 44.6 °F 42.2 °F 42.8 °F 93% 30.29 in 10.0 mi NNE 4.6 mph - N/A   Clear
4:55 AM 44.6 °F 42.2 °F 42.8 °F 93% 30.29 in 10.0 mi NNE 4.6 mph - N/A   Clear
5:15 AM 44.6 °F 40.2 °F 42.8 °F 93% 30.29 in 10.0 mi NE 8.1 mph - N/A   Clear
5:35 AM 44.6 °F 41.4 °F 42.8 °F 93% 30.30 in 10.0 mi NE 5.8 mph - N/A   Clear
5:55 AM 44.6 °F 41.4 °F 42.8 °F 93% 30.31 in 10.0 mi NNE 5.8 mph - N/A   Clear
6:15 AM 44.6 °F 40.7 °F 42.8 °F 93% 30.31 in 10.0 mi NE 6.9 mph - N/A   Clear
6:55 AM 42.8 °F 40.1 °F 41.0 °F 93% 30.32 in 10.0 mi NNE 4.6 mph - N/A   Clear
7:15 AM 42.8 °F 39.3 °F 41.0 °F 93% 30.33 in 10.0 mi NE 5.8 mph - N/A   Clear
7:35 AM 42.8 °F 39.3 °F 41.0 °F 93% 30.33 in 10.0 mi NNE 5.8 mph - N/A   Clear
7:55 AM 44.6 °F 41.4 °F 41.0 °F 87% 30.34 in 10.0 mi NNE 5.8 mph - N/A   Clear
8:15 AM 44.6 °F 41.4 °F 41.0 °F 87% 30.35 in 10.0 mi NE 5.8 mph - N/A   Clear
8:35 AM 46.4 °F 42.4 °F 41.0 °F 81% 30.35 in 10.0 mi NE 8.1 mph - N/A   Clear
8:55 AM 46.4 °F 41.5 °F 41.0 °F 81% 30.35 in 10.0 mi NE 10.4 mph - N/A   Clear
9:15 AM 48.2 °F - 39.2 °F 71% 30.35 in 10.0 mi NE 11.5 mph 18.4 mph N/A   Clear
9:35 AM 50.0 °F - 39.2 °F 66% 30.36 in 10.0 mi NE 9.2 mph 16.1 mph N/A   Clear
10:15 AM 51.8 °F - 41.0 °F 67% 30.36 in 10.0 mi NE 6.9 mph 18.4 mph N/A   Clear
10:35 AM 53.6 °F - 41.0 °F 62% 30.36 in 10.0 mi ENE 11.5 mph 16.1 mph N/A   Clear
10:55 AM 53.6 °F - 41.0 °F 62% 30.36 in 10.0 mi NNE 10.4 mph - N/A   Clear
11:15 AM 55.4 °F - 42.8 °F 63% 30.34 in 10.0 mi NE 6.9 mph 10.4 mph N/A   Clear
11:35 AM 57.2 °F - 42.8 °F 59% 30.34 in 10.0 mi NE 9.2 mph - N/A   Clear
12:55 PM 60.8 °F - 42.8 °F 52% 30.31 in 10.0 mi NNE 9.2 mph - N/A   Clear
1:15 PM 60.8 °F - 42.8 °F 52% 30.30 in 10.0 mi NE 6.9 mph - N/A   Clear
1:35 PM 62.6 °F - 42.8 °F 48% 30.29 in 10.0 mi NE 9.2 mph 16.1 mph N/A   Clear
1:55 PM 62.6 °F - 42.8 °F 48% 30.30 in 10.0 mi NE 13.8 mph 17.3 mph N/A   Clear
2:15 PM 62.6 °F - 42.8 °F 48% 30.28 in 10.0 mi North 9.2 mph 16.1 mph N/A   Clear
2:55 PM 62.6 °F - 41.0 °F 45% 30.28 in 10.0 mi NE 11.5 mph 17.3 mph N/A   Clear
3:15 PM 62.6 °F - 41.0 °F 45% 30.29 in 10.0 mi NE 9.2 mph - N/A   Clear
3:35 PM 62.6 °F - 41.0 °F 45% 30.28 in 10.0 mi NNE 9.2 mph 16.1 mph N/A   Clear
3:55 PM 62.6 °F - 41.0 °F 45% 30.29 in 10.0 mi NE 11.5 mph - N/A   Clear
4:15 PM 60.8 °F - 37.4 °F 42% 30.29 in 10.0 mi NNE 9.2 mph - N/A   Clear
4:35 PM 60.8 °F - 35.6 °F 39% 30.29 in 10.0 mi NE 9.2 mph - N/A   Clear
4:55 PM 59.0 °F - 35.6 °F 42% 30.29 in 10.0 mi NE 6.9 mph - N/A   Clear
5:15 PM 59.0 °F - 35.6 °F 42% 30.30 in 10.0 mi NNE 5.8 mph 9.2 mph N/A   Clear
5:35 PM 57.2 °F - 35.6 °F 44% 30.31 in 10.0 mi NE 6.9 mph - N/A   Clear
5:55 PM 55.4 °F - 35.6 °F 47% 30.33 in 10.0 mi ENE 8.1 mph - N/A   Clear
6:15 PM 55.4 °F - 35.6 °F 47% 30.33 in 10.0 mi NE 5.8 mph - N/A   Clear
6:35 PM 53.6 °F - 37.4 °F 54% 30.33 in 10.0 mi NE 3.5 mph - N/A   Clear
6:55 PM 53.6 °F - 37.4 °F 54% 30.34 in 10.0 mi Calm Calm - N/A   Clear
7:15 PM 53.6 °F - 37.4 °F 54% 30.34 in 10.0 mi Calm Calm - N/A   Clear
7:35 PM 53.6 °F - 37.4 °F 54% 30.34 in 10.0 mi NNE 3.5 mph - N/A   Scattered Clouds
7:55 PM 53.6 °F - 37.4 °F 54% 30.34 in 10.0 mi Calm Calm - N/A   Mostly Cloudy
8:15 PM 53.6 °F - 39.2 °F 58% 30.35 in 10.0 mi NE 3.5 mph - N/A   Overcast
8:35 PM 53.6 °F - 41.0 °F 62% 30.35 in 10.0 mi NE 8.1 mph - N/A   Overcast
8:55 PM 53.6 °F - 42.8 °F 67% 30.34 in 10.0 mi NE 8.1 mph - N/A   Overcast
9:15 PM 53.6 °F - 42.8 °F 67% 30.34 in 10.0 mi NNE 4.6 mph - N/A   Overcast
9:35 PM 55.4 °F - 42.8 °F 63% 30.34 in 10.0 mi NNE 5.8 mph - N/A   Overcast
9:55 PM 55.4 °F - 42.8 °F 63% 30.34 in 10.0 mi NNE 8.1 mph - N/A   Overcast
10:15 PM 55.4 °F - 42.8 °F 63% 30.33 in 10.0 mi NNE 5.8 mph - N/A   Overcast
10:35 PM 55.4 °F - 44.6 °F 67% 30.32 in 10.0 mi NE 8.1 mph - N/A   Overcast
10:55 PM 55.4 °F - 42.8 °F 63% 30.32 in 10.0 mi NNE 9.2 mph - N/A   Overcast
11:15 PM 55.4 °F - 42.8 °F 63% 30.32 in 10.0 mi NE 9.2 mph - N/A   Overcast
11:35 PM 55.4 °F - 42.8 °F 63% 30.32 in 10.0 mi NE 10.4 mph 18.4 mph N/A   Overcast
11:55 PM 55.4 °F - 42.8 °F 63% 30.31 in 10.0 mi NE 11.5 mph 16.1 mph N/A   Overcast